Location: Bakov nad Jizerou
(50.4784°N, 14.9394°E)
Time: 18:06:35
(UTC+00:00)

Cosmos 1703 - Pass Details

Date: 30 October 2021
Orbit: 521 x 539 km, 82.5° (Epoch: 30 November)

Event Time Altitude Azimuth Distance (km) Brightness Sun altitude
Rises 17:11:12 0° 330° (NNW) 2,680 7.2 -15.1°
Reaches altitude 10° 17:14:53 10° 294° (WNW) 1,777 6.9 -15.7°
Maximum altitude 17:15:56 11° 278° (W) 1,716 7.1 -15.8°
Drops below altitude 10° 17:16:58 10° 263° (W) 1,770 7.3 -16.0°
Sets 17:20:38 0° 226° (SW) 2,647 7.6 -16.6°
